EA2DK Weather Reports


time (UTC)temp
F
wind
direction
speed
knots
gust
knots
rain 1hr
in
rain 24hr
in
rain mn
in
humidity
%
barometer
mb
20260507224505 63 206 5.2 8.7 0.00 0.00 0.00 47 1013.8
20260507223004 59 172 2.6 6.1 0.00 0.00 0.00 58 1013.8
20260507221504 58 199 2.6 6.1 0.00 0.00 0.00 61 1013.7
20260507214504 59 149 4.3 6.1 0.00 0.00 0.00 61 1013.8
20260507213005 60 146 0.9 4.3 0.00 0.00 0.00 61 1013.7
20260507211504 61 146 1.7 4.3 0.00 0.00 0.00 59 1013.7
20260507210004 62 146 0.9 2.6 0.00 0.00 0.00 57 1013.5
20260507203004 64 146 0.0 2.6 0.00 0.00 0.00 53 1013.3
20260507201504 64 146 0.9 2.6 0.00 0.00 0.00 53 1013.1
20260507200005 65 146 0.9 4.3 0.00 0.00 0.00 52 1013.0
20260507194504 65 146 1.7 5.2 0.00 0.00 0.00 52 1012.7
20260507193004 66 135 0.9 4.3 0.00 0.00 0.00 52 1012.4
20260507191504 67 84 1.7 2.6 0.00 0.00 0.00 49 1012.5
20260507190005 68 84 0.9 2.6 0.00 0.00 0.00 47 1012.5
20260507184504 68 55 0.0 2.6 0.00 0.00 0.00 46 1012.6
20260507183004 68 55 0.0 6.1 0.00 0.00 0.00 45 1012.6
20260507174504 69 62 0.9 6.1 0.00 0.00 0.00 42 1012.3
20260507173005 70 81 2.6 7.0 0.00 0.00 0.00 40 1012.4
20260507171504 70 98 1.7 8.7 0.00 0.00 0.00 39 1012.3
20260507164504 71 68 3.5 10.4 0.00 0.00 0.00 42 1012.6
20260507163004 71 54 6.1 11.3 0.00 0.00 0.00 42 1012.4
20260507161504 70 46 6.1 13.9 0.00 0.00 0.00 44 1012.4
20260507160004 70 59 7.0 13.0 0.00 0.00 0.00 43 1012.3
20260507154504 71 74 7.8 13.0 0.00 0.00 0.00 39 1012.5
20260507153004 70 40 6.1 13.0 0.00 0.00 0.00 45 1012.6
20260507151504 71 17 4.3 12.2 0.00 0.00 0.00 45 1012.6
20260507144504 70 22 5.2 13.0 0.00 0.00 0.00 46 1012.8
20260507143004 70 341 5.2 13.9 0.00 0.00 0.00 47 1012.9
20260507141504 70 338 6.1 13.0 0.00 0.00 0.00 47 1012.9
20260507140005 71 341 4.3 11.3 0.00 0.00 0.00 46 1013.2
20260507134504 70 342 4.3 12.2 0.00 0.00 0.00 47 1013.3
20260507133004 69 9 5.2 13.9 0.00 0.00 0.00 46 1013.4
20260507130005 69 352 5.2 12.2 0.00 0.00 0.00 47 1013.9
20260507124504 69 2 5.2 11.3 0.00 0.00 0.00 43 1014.1
20260507121504 69 30 7.8 14.8 0.00 0.00 0.00 43 1014.2
20260507120005 68 33 5.2 14.8 0.00 0.00 0.00 44 1014.4
20260507114504 68 40 4.3 13.0 0.00 0.00 0.00 45 1014.5
20260507113005 68 24 5.2 12.2 0.00 0.00 0.00 45 1014.5
20260507111504 68 21 5.2 11.3 0.00 0.00 0.00 46 1014.7
20260507110004 66 326 5.2 10.4 0.00 0.00 0.00 50 1014.9
20260507104504 66 323 5.2 8.7 0.00 0.00 0.00 50 1015.1
20260507100005 64 343 2.6 7.8 0.00 0.00 0.00 49 1015.6
20260507094504 65 39 1.7 6.1 0.00 0.00 0.00 49 1015.8
20260507093004 64 304 0.9 5.2 0.00 0.00 0.00 49 1016.1
20260507091504 64 3 1.7 4.3 0.00 0.00 0.00 49 1016.1
20260507090005 63 57 2.6 6.1 0.00 0.00 0.00 50 1016.2
20260507084503 61 294 0.9 2.6 0.00 0.00 0.00 54 1016.2
20260507083005 59 157 0.9 2.6 0.00 0.00 0.00 55 1016.3
20260507080005 56 117 1.7 2.6 0.00 0.00 0.00 58 1016.5
20260507074504 55 116 1.7 2.6 0.00 0.00 0.00 60 1016.6
20260507073004 54 140 1.7 2.6 0.00 0.00 0.00 62 1016.7
20260507071504 52 155 1.7 4.3 0.00 0.00 0.00 65 1016.6
20260507070008 51 189 2.6 5.2 0.00 0.00 0.00 68 1016.8
20260507064504 50 139 1.7 5.2 0.00 0.00 0.00 69 1016.7
20260507063004 49 128 1.7 4.3 0.00 0.00 0.00 69 1016.8
20260507061504 48 150 0.9 4.3 0.00 0.00 0.00 70 1016.7
20260507060004 47 150 2.6 4.3 0.00 0.00 0.00 69 1016.8
20260507054504 47 150 2.6 5.2 0.00 0.00 0.00 69 1016.8
20260507053005 46 151 1.7 4.3 0.00 0.00 0.00 69 1016.8
20260507051504 46 151 1.7 5.2 0.00 0.00 0.00 69 1016.9
20260507050005 46 164 1.7 4.3 0.00 0.00 0.00 69 1016.9
20260507043004 46 152 1.7 4.3 0.00 0.00 0.00 69 1016.8
20260507041504 47 152 1.7 4.3 0.00 0.00 0.00 69 1016.8
20260507040004 47 153 1.7 4.3 0.00 0.00 0.00 69 1017.0
20260507034504 47 152 1.7 4.3 0.00 0.00 0.00 69 1017.0
20260507033004 47 148 1.7 5.2 0.00 0.00 0.00 69 1017.0
20260507031504 47 154 1.7 4.3 0.00 0.00 0.00 69 1017.0
20260507030005 47 168 2.6 6.1 0.00 0.00 0.00 69 1017.1
20260507024505 47 157 2.6 4.3 0.00 0.00 0.00 68 1016.9
20260507023004 48 167 1.7 4.3 0.00 0.00 0.00 68 1017.1
20260507021503 48 153 0.9 2.6 0.00 0.00 0.00 68 1017.2
20260507020004 48 153 0.9 2.6 0.00 0.00 0.00 68 1017.2
20260507014504 48 153 1.7 5.2 0.00 0.00 0.00 68 1017.3
20260507013004 49 163 2.6 4.3 0.00 0.00 0.00 68 1017.3
20260507010004 49 152 2.6 4.3 0.00 0.00 0.00 68 1017.4
20260507004504 49 152 1.7 4.3 0.00 0.00 0.00 68 1017.5
20260507003004 49 153 2.6 4.3 0.00 0.00 0.00 68 1017.7
20260507001504 49 152 1.7 5.2 0.00 0.00 0.00 67 1017.8
20260507000004 49 150 2.6 6.1 0.00 0.00 0.00 67 1017.9
20260506234504 50 148 1.7 5.2 0.00 0.00 0.00 67 1017.9
20260506231504 50 150 1.7 4.3 0.00 0.00 0.00 67 1018.2